Location: Newark
(52.4787°S, 179.0532°W)
Time: 09:49:56
(UTC+00:00)

Vanguard 1 - Pass Details

Date: 22 November 2019
Orbit: 652 x 3831 km, 34.3° (Epoch: 08 December)

Event Time Altitude Azimuth Distance (km) Brightness Sun altitude
Rises 11:58:10 0° 290° (WNW) 5,656 13.7 -17.3°
Reaches altitude 10° 12:01:34 10° 296° (WNW) 5,023 13.4 -17.3°
Maximum altitude 12:16:00 43° 0° (N) 4,154 12.7 -17.0°
Drops below altitude 10° 12:36:26 10° 61° (ENE) 6,942 14.2 -16.4°
Sets 12:42:16 0° 66° (ENE) 7,923 14.6 -16.2°
